Location: Unspecified
(59.0307°N, 0.0000°E)
Time: 14:27:40
(UTC+00:00)

Altair - All Passes

Search period start: 04 April 2026 00:00
Search period end: 14 April 2026 00:00
Orbit: 1502 x 1682 km, 47.2° (Epoch: 29 March)

Date Brightness Start Highest point End Pass type
(mag) Time Alt. Az. Time Alt. Az. Time Alt. Az.
4 Apr - 15:59:33 10° SSW 16:07:00 25° SE 16:14:14 10° E daylight
4 Apr - 18:01:09 10° SW 18:09:50 39° S 18:18:14 10° ESE daylight
4 Apr - 20:04:29 10° WSW 20:12:59 38° SSW 20:21:14 10° SE visible
4 Apr - 22:08:52 10° W 22:15:38 23° SW 22:22:17 10° S visible
5 Apr - 15:34:39 10° SSW 15:41:55 24° SE 15:48:59 10° E daylight
5 Apr - 17:36:01 10° SW 17:44:42 39° SSE 17:53:06 10° ESE daylight
5 Apr - 19:39:17 10° WSW 19:47:52 39° SSW 19:56:11 10° SE visible
5 Apr - 21:43:34 10° W 21:50:35 24° SW 21:57:27 10° SSE visible
6 Apr - 15:09:45 10° S 15:16:50 23° SE 15:23:45 10° E daylight
6 Apr - 17:10:54 10° SW 17:19:34 38° SSE 17:27:57 10° ESE daylight
6 Apr - 19:14:06 10° WSW 19:22:45 39° S 19:31:07 10° SE daylight
6 Apr - 21:18:17 10° W 21:25:31 26° SW 21:32:36 10° SSE visible
7 Apr - 14:44:53 10° S 14:51:45 22° SE 14:58:28 10° E daylight
7 Apr - 16:45:48 10° SW 16:54:27 37° SSE 17:02:49 10° ESE daylight
7 Apr - 18:48:54 10° WSW 18:57:37 40° S 19:06:03 10° SE daylight
7 Apr - 20:53:01 10° W 21:00:27 27° SSW 21:07:43 10° SSE visible
8 Apr - 14:20:04 10° S 14:26:41 21° SE 14:33:10 10° E daylight
8 Apr - 16:20:42 10° SW 16:29:19 37° SSE 16:37:40 10° E daylight
8 Apr - 18:23:42 10° WSW 18:32:29 41° S 18:40:58 10° ESE daylight
8 Apr - 20:27:45 10° W 20:35:22 28° SSW 20:42:49 10° SSE visible
8 Apr - 22:35:13 10° WSW 22:37:16 11° SW 22:39:19 10° SW visible
9 Apr - 13:55:16 10° S 14:01:37 19° SE 14:07:51 10° E daylight
9 Apr - 15:55:36 10° SW 16:04:12 36° SSE 16:12:30 10° E daylight
9 Apr - 17:58:31 10° WSW 18:07:21 41° S 18:15:53 10° ESE daylight
9 Apr - 20:02:30 10° W 20:10:18 29° SSW 20:17:53 10° SSE visible
9 Apr - 22:09:06 10° WSW 22:12:17 12° SW 22:15:26 10° SSW visible
10 Apr - 13:30:31 10° S 13:36:34 18° SE 13:42:30 10° E daylight
10 Apr - 15:30:32 10° SW 15:39:04 35° SSE 15:47:20 10° E daylight
10 Apr - 17:33:20 10° WSW 17:42:13 41° S 17:50:47 10° ESE daylight
10 Apr - 19:37:15 10° W 19:45:12 31° SSW 19:52:57 10° SSE visible
10 Apr - 21:43:19 10° WSW 21:47:17 13° SW 21:51:12 10° SSW visible
11 Apr - 13:05:49 10° S 13:11:31 17° SE 13:17:07 10° E daylight
11 Apr - 15:05:28 10° SW 15:13:56 34° SSE 15:22:10 10° E daylight
11 Apr - 17:08:09 10° WSW 17:17:04 42° S 17:25:41 10° ESE daylight
11 Apr - 19:12:00 10° W 19:20:07 32° SSW 19:27:59 10° SSE daylight
11 Apr - 21:17:41 10° WSW 21:22:16 15° SW 21:26:48 10° SSW visible
12 Apr - 12:41:11 10° SSE 12:46:29 16° SE 12:51:41 10° E daylight
12 Apr - 14:40:24 10° SW 14:48:49 33° SSE 14:56:59 10° E daylight
12 Apr - 16:42:59 10° WSW 16:51:56 42° S 17:00:35 10° ESE daylight
12 Apr - 18:46:45 10° W 18:55:01 33° SSW 19:03:01 10° SE daylight
12 Apr - 20:52:09 10° W 20:57:15 16° SW 21:02:17 10° SSW visible
13 Apr - 12:16:37 10° SSE 12:21:26 15° SE 12:26:11 10° ESE daylight
13 Apr - 14:15:23 10° SSW 14:23:42 32° SSE 14:31:49 10° E daylight
13 Apr - 16:17:48 10° WSW 16:26:47 42° S 16:35:28 10° ESE daylight
13 Apr - 18:21:31 10° W 18:29:54 34° SSW 18:38:00 10° SE daylight
13 Apr - 20:26:40 10° W 20:32:14 17° SW 20:37:42 10° S visible
